TimeMDT,TemperatureF,Dew PointF,Humidity,Sea Level PressureIn,VisibilityMPH,Wind Direction,Wind SpeedMPH,Gust SpeedMPH,PrecipitationIn,Events,Conditions,WindDirDegrees,DateUTC
12:53 AM,48.9,14.0,25,29.91,10.0,North,4.6,-,N/A,,Clear,350,2013-06-16 06:53:00
1:53 AM,45.0,12.0,26,29.92,10.0,North,3.5,-,N/A,,Clear,350,2013-06-16 07:53:00
2:53 AM,51.1,10.0,19,29.89,10.0,Calm,Calm,-,N/A,,Clear,0,2013-06-16 08:53:00
3:53 AM,51.1,8.1,18,29.90,10.0,Calm,Calm,-,N/A,,Clear,0,2013-06-16 09:53:00
4:53 AM,52.0,10.0,19,29.90,10.0,WSW,5.8,-,N/A,,Clear,240,2013-06-16 10:53:00
5:53 AM,48.0,10.9,22,29.93,10.0,Calm,Calm,-,N/A,,Clear,0,2013-06-16 11:53:00
6:53 AM,54.0,14.0,21,29.93,10.0,SE,4.6,-,N/A,,Clear,130,2013-06-16 12:53:00
7:53 AM,63.0,14.0,15,29.92,10.0,Calm,Calm,-,N/A,,Clear,0,2013-06-16 13:53:00
8:53 AM,70.0,14.0,12,29.93,10.0,WSW,10.4,-,N/A,,Clear,240,2013-06-16 14:53:00
9:53 AM,73.0,12.9,10,29.94,10.0,WSW,8.1,-,N/A,,Clear,250,2013-06-16 15:53:00
10:53 AM,77.0,16.0,10,29.94,10.0,West,12.7,21.9,N/A,,Clear,260,2013-06-16 16:53:00
11:53 AM,77.0,17.1,10,29.94,10.0,West,12.7,-,N/A,,Clear,280,2013-06-16 17:53:00
12:53 PM,77.0,21.0,12,29.93,10.0,SW,18.4,29.9,N/A,,Scattered Clouds,230,2013-06-16 18:53:00
1:53 PM,78.1,19.9,11,29.92,10.0,SSW,15.0,-,N/A,,Mostly Cloudy,210,2013-06-16 19:53:00
2:42 PM,75.2,21.2,13,30.18,10.0,WSW,26.5,34.5,N/A,,Overcast,240,2013-06-16 20:42:00
2:53 PM,75.0,27.0,17,29.92,10.0,SSW,23.0,38.0,N/A,,Mostly Cloudy,210,2013-06-16 20:53:00
3:53 PM,69.1,33.1,26,29.95,10.0,South,26.5,35.7,N/A,,Clear,180,2013-06-16 21:53:00
4:53 PM,75.9,27.0,16,29.91,10.0,South,18.4,25.3,N/A,,Clear,180,2013-06-16 22:53:00
5:53 PM,71.1,28.9,21,29.96,10.0,SW,21.9,29.9,N/A,,Clear,220,2013-06-16 23:53:00
6:00 PM,69.8,30.2,23,30.18,10.0,SSW,18.4,28.8,N/A,,Partly Cloudy,210,2013-06-17 00:00:00
6:53 PM,70.0,34.0,27,29.93,10.0,SSW,21.9,32.2,N/A,,Clear,210,2013-06-17 00:53:00
7:53 PM,69.1,28.9,22,29.89,10.0,SSW,12.7,20.7,N/A,,Clear,200,2013-06-17 01:53:00
8:53 PM,63.0,30.9,30,29.90,10.0,South,9.2,-,N/A,,Clear,190,2013-06-17 02:53:00
9:53 PM,57.9,33.1,39,29.91,10.0,East,4.6,-,N/A,,Clear,90,2013-06-17 03:53:00
10:53 PM,57.0,32.0,39,29.91,10.0,NNE,4.6,-,N/A,,Clear,30,2013-06-17 04:53:00
11:53 PM,55.0,32.0,42,29.91,10.0,South,5.8,-,N/A,,Partly Cloudy,190,2013-06-17 05:53:00